This is the latest recevied weather packets stored in our database for station/object WX4LTG. If no packets are shown the sender has not sent any weather packets the latest 1 day(s).
| Time | Temp. | Humidity | Pressure | Rain* | Wind** | Luminosity | Snow |
|---|---|---|---|---|---|---|---|
| 1777989283 | 18.89° C | 63% | 1011.9 hPa | 0 mm | 0.45 m/s, 180° | 65 W/m² | - |
| 1777988979 | 18.89° C | 64% | 1011.6 hPa | 0 mm | 0.89 m/s, 165° | 60 W/m² | - |
| 1777988676 | 18.89° C | 64% | 1011.6 hPa | 0 mm | 0.45 m/s, 205° | 52 W/m² | - |
| 1777988373 | 18.89° C | 65% | 1011.5 hPa | 0 mm | 0 m/s | 44 W/m² | - |
| 1777988070 | 18.33° C | 64% | 1011.5 hPa | 0 mm | 0.89 m/s, 172° | 31 W/m² | - |
| 1777987765 | 18.33° C | 64% | 1011.7 hPa | 0 mm | 0 m/s | 26 W/m² | - |
| 1777987462 | 18.33° C | 65% | 1011.5 hPa | 0 mm | 0 m/s | 26 W/m² | - |
| 1777987160 | 18.33° C | 64% | 1011.7 hPa | 0 mm | 0 m/s | 15 W/m² | - |
| 1777986857 | 18.33° C | 64% | 1011.6 hPa | 0 mm | 0.89 m/s, 186° | 9 W/m² | - |
| 1777986555 | 18.33° C | 63% | 1011.4 hPa | 0 mm | 0 m/s | 8 W/m² | - |
| 1777986253 | 18.33° C | 63% | 1011 hPa | 0 mm | 0 m/s | 10 W/m² | - |
| 1777985949 | 18.33° C | 63% | 1011.4 hPa | 0 mm | 0 m/s | 10 W/m² | - |
| 1777985647 | 18.33° C | 63% | 1011.2 hPa | 0 mm | 0 m/s | 11 W/m² | - |
| 1777985343 | 18.33° C | 63% | 1011 hPa | 0 mm | 0 m/s | 7 W/m² | - |
| 1777985040 | 18.33° C | 62% | 1011.2 hPa | 0 mm | 0 m/s | 5 W/m² | - |
| 1777984736 | 18.33° C | 62% | 1011 hPa | 0 mm | 0 m/s | 3 W/m² | - |
| 1777984433 | 18.33° C | 63% | 1010.8 hPa | 0 mm | 0.45 m/s, 121° | 1 W/m² | - |
| 1777984129 | 18.33° C | 63% | 1010.7 hPa | 0 mm | 0 m/s | 1 W/m² | - |
| 1777983827 | 18.33° C | 63% | 1010.8 hPa | 0 mm | 0.45 m/s, 114° | 0 W/m² | - |
| 1777983523 | 18.33° C | 64% | 1010.8 hPa | 0 mm | 0 m/s | 0 W/m² | - |
| 1777983220 | 18.33° C | 64% | 1010.8 hPa | 0 mm | 0 m/s | 0 W/m² | - |
| 1777982916 | 18.33° C | 63% | 1010.6 hPa | 0 mm | 0 m/s | 0 W/m² | - |
| 1777982612 | 18.33° C | 63% | 1010.6 hPa | 0 mm | 0 m/s | 0 W/m² | - |
| 1777982311 | 18.33° C | 63% | 1010.6 hPa | 0 mm | 0 m/s | 0 W/m² | - |
| 1777982008 | 18.33° C | 63% | 1010.6 hPa | 0 mm | 0 m/s | 0 W/m² | - |
* Rain latest hour (hover to see other rain measurements)
** Current wind speed in m/s (hover to see current wind gust speed)